Showing default

GLOBALSTAR M069, 31573

Orbit data source: Space-Track

GLOBALSTAR M069, 31573 is a payload satellite owned by Globalstar (US) in LEO that was launched on Tue, 29 May 2007 UTC via a SOYUZ-FG launch vehicle from the Tyuratam Missile And Space Complex (TTMTR). Payload-class satellites include a variety of spacecraft equipped with specific instruments for various scientific and technological missions. These include communications satellites like Starlink; space stations such as the ISS; scientific satellites like the Hubble; Earth observation satellites from companies like Planet Labs, Umbra, and HawkEye 360; GPS; miniature CubeSats for education and research; and military/defense satellites.

Loading next visibility...
Identifier
31573, 2007-020C
Orbit
LEO
Last TLE update
22 hours ago
Origin
Manufacturer
SS/Loral
Mission
Operational Commercial Communications
Bus & Motor
LS-400, LS-400 AOCS
Mass
450 kg wet, 380 kg dry
Launch date (UTC)
2007-05-29 (18 years ago)
Launch vehicle
SOYUZ-FG
Launch site
Tyuratam Missile And Space Complex (TTMTR)
Object type
Payload
Rocket body
Debris
Shape & HBR
Box + 2 Pan, 12 m
Radar Cross Section
5.587 m², Large (>1 m²)

Expand to show TLE details & history

TLE from 22 hours ago
0 GLOBALSTAR M069
1 31573U 07020C   25128.75049194 -.00000070  00000-0  20640-3 0  9998
2 31573  51.9961 318.7493 0001741  99.9047 341.3802 12.39476276829263
Epoch: 2025-05-08T18:00Z
Definitive object data (Epoch: 2025-05-08T18:00:42.503Z)
Latitude
51.29131°
Longitude
-102.24914°
Altitude
1,513.668 km
Speed
7.114 km/s
True Right ascension
02h 18m 58s
True Declination
51° 08' 22"
Sunlit
Object was in daylight at TLE epoch
Visualization TLE readout
Latitude
-51.35867°
Longitude
102.47523°
Altitude
1,528.015 km
Speed
7.101 km/s
Apparent Right ascension
14h 15m 30s
Apparent Declination
-49° 03' 29"
Sunlit
Object is in full shadow
Visualization observer readout
Local Sidereal Time
00:32:06
Azimuth
234.881° WSW
Elevation
-69.554°
Doppler factor
1
Orbital elements
Apogee altitude
1,510.585 km
Perigee altitude
1,507.839 km
Semi-major axis
7,887.349 km
Eccentricity
0.0001741
Inclination
51.9961°
RAAN
318.7493°
Arg. of periapsis
99.9047°
True anomaly
341.37383°
Mean anomaly
341.3802°
Eccentric anomaly
341.37701°
Mean motion
3.09846 °/min
BSTAR
0.0002064
Orbital period
116.19 mins
Loading maneuver chart data...
Loading SW <> Apogee altitude chart data...
Loading historical data...
Loading historical data...
Loading historical data...
Loading historical data...
Loading historical data...
Loading historical data...
Loading historical data...

GLOBALSTAR M069 Visibility forecast

Observer location: undefined°, undefined°

Span
Click to sort rows by Start time (UTC) header in descending order
Start Az.
Max El. time (UTC)
Max El. Az.
Max El.
End time (UTC)
End Az.
16 mins2025-05-09 17:02:38.269Z266.355° W2025-05-09 17:10:38.269Z339.054° N37.456°2025-05-09 17:18:38.269Z50.951° ENE
15 mins2025-05-09 19:07:38.269Z302.885° NW2025-05-09 19:14:38.269Z5.726° NNE32.331°2025-05-09 19:22:38.269Z70.976° E
16 mins2025-05-09 21:10:38.269Z311.075° NW2025-05-09 21:18:38.269Z45.017° ENE41.901°2025-05-09 21:26:38.269Z110.696° ESE
15 mins2025-05-09 23:12:38.269Z297.093° NW2025-05-09 23:19:38.269Z237.981° WSW36.042°2025-05-09 23:27:38.269Z163.165° S
16 mins2025-05-10 14:12:38.269Z201.736° SSW2025-05-10 14:19:38.269Z141.582° SSE38.405°2025-05-10 14:28:38.269Z58.858° ENE
7 mins2025-05-10 16:14:38.269Z255.512° W2025-05-10 16:21:38.269Z317.355° NNW40.638°2025-05-10 16:21:38.269Z317.355° NNW
|